Heubes-Wetterstation in 44289 Dortmund
Heubes-Wetterstation

Messwerte der letzten 60 Minuten im Minuten-Intervall (Wetterstation 44289 Dortmund)

Datum & Uhrzeit Temp. Feucht. Wind-Ø Böen Sekt.  Regen Rate Luftdruck
25.05.2019 - 21:0816.4 °C62%0 km/h 0 km/h N0.0 mm 0.0 mm 1016.3 hPa, gleichbleibend
25.05.2019 - 21:0716.4 °C62%0 km/h 0 km/h N0.0 mm 0.0 mm 1016.3 hPa, gleichbleibend
25.05.2019 - 21:0616.5 °C61.5%0 km/h 0 km/h N0.0 mm 0.0 mm 1016.3 hPa, gleichbleibend
25.05.2019 - 21:0516.6 °C61%0 km/h 0 km/h N0.0 mm 0.0 mm 1016.3 hPa, gleichbleibend
25.05.2019 - 21:0416.6 °C61%0 km/h 0 km/h N0.0 mm 0.0 mm 1016.3 hPa, langsam fallend
25.05.2019 - 21:0316.6 °C61%0 km/h 0 km/h N0.0 mm 0.0 mm 1016.4 hPa, gleichbleibend
25.05.2019 - 21:0216.7 °C61%0 km/h 0 km/h N0.0 mm 0.0 mm 1016.4 hPa, gleichbleibend
25.05.2019 - 21:0116.7 °C61%0 km/h 0 km/h N0.0 mm 0.0 mm 1016.4 hPa, gleichbleibend
25.05.2019 - 21:0016.7 °C61%0 km/h 0 km/h N0.0 mm 0.0 mm 1016.4 hPa, langsam steigend
25.05.2019 - 20:5916.8 °C61%0 km/h 0 km/h N0.0 mm 0.0 mm 1016.3 hPa, gleichbleibend
25.05.2019 - 20:5816.8 °C61%0 km/h 0 km/h N0.0 mm 0.0 mm 1016.3 hPa, langsam fallend
25.05.2019 - 20:5716.8 °C61%0 km/h 0 km/h N0.0 mm 0.0 mm 1016.4 hPa, langsam steigend
25.05.2019 - 20:5616.8 °C61%0 km/h 0 km/h N0.0 mm 0.0 mm 1016.3 hPa, gleichbleibend
25.05.2019 - 20:5516.8 °C61%0 km/h 0 km/h N0.0 mm 0.0 mm 1016.3 hPa, gleichbleibend
25.05.2019 - 20:5416.9 °C61%0 km/h 0 km/h N0.0 mm 0.0 mm 1016.3 hPa, gleichbleibend
25.05.2019 - 20:5316.9 °C60%0 km/h 0 km/h N0.0 mm 0.0 mm 1016.3 hPa, gleichbleibend
25.05.2019 - 20:5216.9 °C60%0 km/h 0 km/h N0.0 mm 0.0 mm 1016.3 hPa, langsam fallend
25.05.2019 - 20:5116.9 °C60%0 km/h 0 km/h N0.0 mm 0.0 mm 1016.4 hPa, gleichbleibend
25.05.2019 - 20:5016.9 °C60%0 km/h 0 km/h N0.0 mm 0.0 mm 1016.4 hPa, gleichbleibend
25.05.2019 - 20:4916.9 °C60%0 km/h 1 km/h N0.0 mm 0.0 mm 1016.4 hPa, gleichbleibend
25.05.2019 - 20:4817.0 °C60%0 km/h 0 km/h N0.0 mm 0.0 mm 1016.4 hPa, gleichbleibend
25.05.2019 - 20:4717.0 °C60%0 km/h 0 km/h N0.0 mm 0.0 mm 1016.4 hPa, gleichbleibend
25.05.2019 - 20:4617.1 °C60%0 km/h 0 km/h N0.0 mm 0.0 mm 1016.4 hPa, gleichbleibend
25.05.2019 - 20:4517.1 °C60%0 km/h 0 km/h N0.0 mm 0.0 mm 1016.4 hPa, langsam fallend
25.05.2019 - 20:4417.1 °C60%0 km/h 0 km/h N0.0 mm 0.0 mm 1016.5 hPa, gleichbleibend
25.05.2019 - 20:4317.1 °C60%0 km/h 0 km/h N0.0 mm 0.0 mm 1016.5 hPa, gleichbleibend
25.05.2019 - 20:4217.1 °C59.5%0 km/h 0 km/h N-NW0.0 mm 0.0 mm 1016.5 hPa, langsam steigend
25.05.2019 - 20:4117.1 °C59%0 km/h 0 km/h N-NW0.0 mm 0.0 mm 1016.4 hPa, gleichbleibend
25.05.2019 - 20:4017.1 °C59.2%0 km/h 1 km/h N-NW0.0 mm 0.0 mm 1016.4 hPa, gleichbleibend
25.05.2019 - 20:3917.2 °C60%0 km/h 3 km/h N-NW0.0 mm 0.0 mm 1016.4 hPa, gleichbleibend
25.05.2019 - 20:3817.2 °C60%0 km/h 1 km/h NW0.0 mm 0.0 mm 1016.4 hPa, gleichbleibend
25.05.2019 - 20:3717.2 °C60%0 km/h 0 km/h N0.0 mm 0.0 mm 1016.4 hPa, gleichbleibend
25.05.2019 - 20:3617.2 °C59%0 km/h 0 km/h N0.0 mm 0.0 mm 1016.4 hPa, langsam fallend
25.05.2019 - 20:3517.2 °C59%0 km/h 0 km/h N0.0 mm 0.0 mm 1016.5 hPa, langsam steigend
25.05.2019 - 20:3417.2 °C59%0 km/h 0 km/h N0.0 mm 0.0 mm 1016.4 hPa, gleichbleibend
25.05.2019 - 20:3317.2 °C59%0 km/h 0 km/h N0.0 mm 0.0 mm 1016.4 hPa, gleichbleibend
25.05.2019 - 20:3217.2 °C59%0 km/h 0 km/h N0.0 mm 0.0 mm 1016.4 hPa, gleichbleibend
25.05.2019 - 20:3117.2 °C59%0 km/h 0 km/h N0.0 mm 0.0 mm 1016.4 hPa, gleichbleibend
25.05.2019 - 20:3017.2 °C59%0 km/h 0 km/h N0.0 mm 0.0 mm 1016.4 hPa, gleichbleibend
25.05.2019 - 20:2917.2 °C59%0 km/h 0 km/h N0.0 mm 0.0 mm 1016.4 hPa, gleichbleibend
25.05.2019 - 20:2817.2 °C59%0 km/h 1 km/h N0.0 mm 0.0 mm 1016.4 hPa, gleichbleibend
25.05.2019 - 20:2717.2 °C58.5%0 km/h 0 km/h N-NO0.0 mm 0.0 mm 1016.4 hPa, gleichbleibend
25.05.2019 - 20:2617.2 °C58%0 km/h 0 km/h N-NO0.0 mm 0.0 mm 1016.4 hPa, gleichbleibend
25.05.2019 - 20:2517.2 °C58%0 km/h 1 km/h N-NO0.0 mm 0.0 mm 1016.4 hPa, gleichbleibend
25.05.2019 - 20:2417.2 °C58%0 km/h 1 km/h N0.0 mm 0.0 mm 1016.4 hPa, gleichbleibend
25.05.2019 - 20:2317.3 °C58%0 km/h 0 km/h N0.0 mm 0.0 mm 1016.4 hPa, gleichbleibend
25.05.2019 - 20:2217.2 °C58%0 km/h 0 km/h N-NO0.0 mm 0.0 mm 1016.4 hPa, gleichbleibend
25.05.2019 - 20:2117.3 °C58.3%0 km/h 3 km/h N-NO0.0 mm 0.0 mm 1016.4 hPa, gleichbleibend
25.05.2019 - 20:2017.2 °C59%0 km/h 0 km/h N0.0 mm 0.0 mm 1016.4 hPa, gleichbleibend
25.05.2019 - 20:1917.3 °C59%0 km/h 1 km/h N-NO0.0 mm 0.0 mm 1016.4 hPa, gleichbleibend
25.05.2019 - 20:1817.3 °C59%0 km/h 0 km/h N0.0 mm 0.0 mm 1016.4 hPa, gleichbleibend
25.05.2019 - 20:1717.3 °C59%0 km/h 1 km/h N0.0 mm 0.0 mm 1016.4 hPa, langsam fallend
25.05.2019 - 20:1617.3 °C59%0 km/h 0 km/h O-NO0.0 mm 0.0 mm 1016.5 hPa, langsam steigend
25.05.2019 - 20:1517.3 °C59%0 km/h 0 km/h O-NO0.0 mm 0.0 mm 1016.4 hPa, gleichbleibend
25.05.2019 - 20:1417.3 °C59%0 km/h 0 km/h O-NO0.0 mm 0.0 mm 1016.4 hPa, gleichbleibend
25.05.2019 - 20:1317.3 °C59%0 km/h 0 km/h O-NO0.0 mm 0.0 mm 1016.4 hPa, gleichbleibend
25.05.2019 - 20:1217.3 °C59%0 km/h 0 km/h NO0.0 mm 0.0 mm 1016.4 hPa, gleichbleibend
25.05.2019 - 20:1117.3 °C59%0 km/h 1 km/h N-NO0.0 mm 0.0 mm 1016.4 hPa, langsam steigend
25.05.2019 - 20:1017.3 °C59%0 km/h 0 km/h N-NO0.0 mm 0.0 mm 1016.3 hPa, gleichbleibend
25.05.2019 - 20:0917.3 °C59%0 km/h 3 km/h N0.0 mm 0.0 mm 1016.3 hPa, gleichbleibend